| time (UTC) | temp F | wind direction | speed MPH | gust MPH | rain 1hr in | rain 24hr in | rain mn in | humidity % | barometer mb |
| 20260902000056 | 65 | 227 | 0.0 | 0.0 | 0.00 | 0.19 | 0.19 | 74 | 1009.7 |
| 20260901234609 | 66 | 223 | 0.0 | 0.0 | 0.00 | 0.19 | 0.19 | 73 | 1009.5 |
| 20260901233050 | 68 | 248 | 0.0 | 0.0 | 0.00 | 0.19 | 0.19 | 74 | 1009.4 |
| 20260901231551 | 68 | 251 | 0.0 | 6.0 | 0.00 | 0.19 | 0.19 | 74 | 1009.4 |
| 20260901230125 | 67 | 240 | 0.0 | 1.0 | 0.00 | 0.19 | 0.19 | 74 | 1009.5 |
| 20260901224542 | 66 | 225 | 0.0 | 0.0 | 0.00 | 0.19 | 0.19 | 82 | 1009.5 |
| 20260901223104 | 65 | 208 | 0.0 | 1.0 | 0.00 | 0.19 | 0.19 | 83 | 1009.7 |
| 20260901221540 | 65 | 256 | 0.0 | 0.0 | 0.00 | 0.19 | 0.19 | 84 | 1009.9 |
| 20260901220042 | 64 | 301 | 0.0 | 0.0 | 0.00 | 0.19 | 0.19 | 83 | 1010.0 |
| 20260901214537 | 64 | 173 | 0.0 | 0.0 | 0.00 | 0.19 | 0.19 | 89 | 1010.0 |
| 20260901213039 | 63 | 221 | 0.0 | 0.0 | 0.00 | 0.19 | 0.19 | 88 | 1010.1 |
| 20260901211541 | 63 | 229 | 0.0 | 0.0 | 0.00 | 0.19 | 0.19 | 91 | 1010.1 |
| 20260901210028 | 63 | 230 | 0.0 | 0.0 | 0.00 | 0.19 | 0.19 | 91 | 1010.1 |
| 20260901204540 | 64 | 225 | 0.0 | 0.0 | 0.00 | 0.19 | 0.19 | 89 | 1010.0 |
| 20260901203028 | 65 | 262 | 0.0 | 0.0 | 0.00 | 0.19 | 0.19 | 90 | 1009.8 |
| 20260901201524 | 64 | 112 | 0.0 | 1.0 | 0.00 | 0.19 | 0.19 | 93 | 1010.0 |
| 20260901200036 | 64 | 57 | 0.0 | 0.0 | 0.00 | 0.19 | 0.19 | 94 | 1010.1 |
| 20260901194522 | 62 | 191 | 0.0 | 0.0 | 0.00 | 0.19 | 0.19 | 94 | 1010.4 |
| 20260901193117 | 61 | 191 | 0.0 | 0.0 | 0.01 | 0.19 | 0.19 | 95 | 1010.4 |
| 20260901191516 | 61 | 274 | 0.0 | 0.0 | 0.03 | 0.19 | 0.19 | 95 | 1010.4 |
| 20260901190021 | 60 | 208 | 0.0 | 0.0 | 0.03 | 0.19 | 0.19 | 96 | 1010.3 |
| 20260901184518 | 59 | 234 | 0.0 | 0.0 | 0.06 | 0.19 | 0.19 | 95 | 1010.4 |
| 20260901183031 | 60 | 229 | 0.0 | 6.0 | 0.05 | 0.18 | 0.18 | 95 | 1010.4 |
| 20260901181506 | 60 | 191 | 0.0 | 0.0 | 0.03 | 0.16 | 0.16 | 96 | 1010.3 |
| 20260901180003 | 59 | 190 | 0.0 | 0.0 | 0.04 | 0.16 | 0.16 | 95 | 1010.0 |
| 20260901174603 | 59 | 191 | 0.0 | 0.0 | 0.01 | 0.13 | 0.13 | 95 | 1010.1 |
| 20260901173108 | 59 | 191 | 0.0 | 0.0 | 0.01 | 0.13 | 0.13 | 96 | 1009.9 |
| 20260901171552 | 59 | 191 | 0.0 | 0.0 | 0.01 | 0.13 | 0.13 | 95 | 1009.7 |
| 20260901170048 | 59 | 190 | 0.0 | 0.0 | 0.01 | 0.12 | 0.12 | 95 | 1009.6 |
| 20260901164552 | 59 | 190 | 0.0 | 0.0 | 0.01 | 0.12 | 0.12 | 95 | 1009.6 |
| 20260901163042 | 59 | 191 | 0.0 | 0.0 | 0.02 | 0.12 | 0.12 | 95 | 1009.6 |
| 20260901161540 | 58 | 190 | 0.0 | 0.0 | 0.04 | 0.12 | 0.12 | 95 | 1009.5 |
| 20260901160043 | 58 | 190 | 0.0 | 0.0 | 0.06 | 0.11 | 0.11 | 95 | 1009.4 |
| 20260901154541 | 58 | 344 | 0.0 | 0.0 | 0.11 | 0.11 | 0.11 | 95 | 1009.3 |
| 20260901153040 | 58 | 345 | 0.0 | 0.0 | 0.10 | 0.10 | 0.10 | 95 | 1009.2 |
| 20260901151536 | 58 | 344 | 0.0 | 0.0 | 0.08 | 0.08 | 0.08 | 95 | 1009.2 |
| 20260901150033 | 58 | 345 | 0.0 | 0.0 | 0.05 | 0.05 | 0.05 | 95 | 1009.0 |
| 20260901144537 | 58 | 344 | 0.0 | 0.0 | 0.00 | 0.00 | 0.00 | 95 | 1008.8 |
| 20260901143030 | 58 | 345 | 0.0 | 0.0 | 0.00 | 0.00 | 0.00 | 95 | 1008.6 |
| 20260901141527 | 58 | 344 | 0.0 | 0.0 | 0.00 | 0.00 | 0.00 | 95 | 1008.3 |
| 20260901140031 | 58 | 17 | 0.0 | 0.0 | 0.00 | 0.00 | 0.00 | 95 | 1008.1 |
| 20260901134526 | 58 | 76 | 0.0 | 0.0 | 0.00 | 0.00 | 0.00 | 95 | 1007.9 |
| 20260901133037 | 58 | 76 | 0.0 | 0.0 | 0.00 | 0.00 | 0.00 | 95 | 1008.0 |
| 20260901131628 | 58 | 76 | 0.0 | 0.0 | 0.00 | 0.00 | 0.00 | 95 | 1007.9 |
| 20260901130022 | 58 | 76 | 0.0 | 0.0 | 0.00 | 0.00 | 0.00 | 95 | 1007.8 |
| 20260901124522 | 58 | 76 | 0.0 | 0.0 | 0.00 | 0.00 | 0.00 | 94 | 1008.0 |
| 20260901123021 | 58 | 76 | 0.0 | 0.0 | 0.00 | 0.00 | 0.00 | 94 | 1007.9 |
| 20260901121521 | 58 | 76 | 0.0 | 0.0 | 0.00 | 0.00 | 0.00 | 94 | 1007.8 |
| 20260901120020 | 58 | 76 | 0.0 | 0.0 | 0.00 | 0.00 | 0.00 | 94 | 1007.8 |
| 20260901114519 | 58 | 76 | 0.0 | 0.0 | 0.00 | 0.00 | 0.00 | 94 | 1007.8 |
| 20260901113020 | 58 | 76 | 0.0 | 0.0 | 0.00 | 0.00 | 0.00 | 94 | 1007.8 |
| 20260901111518 | 58 | 76 | 0.0 | 0.0 | 0.00 | 0.00 | 0.00 | 94 | 1007.8 |
| 20260901110033 | 58 | 76 | 0.0 | 0.0 | 0.00 | 0.00 | 0.00 | 94 | 1007.7 |
| 20260901104517 | 58 | 192 | 0.0 | 0.0 | 0.00 | 0.01 | 0.00 | 94 | 1008.0 |
| 20260901103015 | 58 | 192 | 0.0 | 0.0 | 0.00 | 0.01 | 0.00 | 94 | 1008.1 |
| 20260901101514 | 58 | 192 | 0.0 | 0.0 | 0.00 | 0.01 | 0.00 | 94 | 1008.1 |
| 20260901100014 | 58 | 192 | 0.0 | 0.0 | 0.00 | 0.01 | 0.00 | 94 | 1008.2 |
| 20260901094521 | 58 | 192 | 0.0 | 0.0 | 0.00 | 0.01 | 0.00 | 93 | 1008.0 |
| 20260901093012 | 58 | 192 | 0.0 | 0.0 | 0.00 | 0.01 | 0.00 | 93 | 1007.9 |
| 20260901091510 | 58 | 308 | 0.0 | 0.0 | 0.00 | 0.01 | 0.00 | 93 | 1008.0 |
| 20260901090013 | 58 | 308 | 0.0 | 0.0 | 0.00 | 0.01 | 0.00 | 93 | 1007.9 |
| 20260901084508 | 58 | 308 | 0.0 | 0.0 | 0.00 | 0.01 | 0.00 | 92 | 1007.9 |
| 20260901083008 | 58 | 240 | 0.0 | 0.0 | 0.00 | 0.01 | 0.00 | 92 | 1007.9 |
| 20260901081511 | 58 | 240 | 0.0 | 0.0 | 0.00 | 0.01 | 0.00 | 92 | 1007.9 |
| 20260901080006 | 58 | 240 | 0.0 | 0.0 | 0.00 | 0.01 | 0.00 | 92 | 1007.8 |
| 20260901074506 | 58 | 240 | 0.0 | 0.0 | 0.00 | 0.01 | 0.00 | 92 | 1007.8 |
| 20260901073010 | 58 | 240 | 0.0 | 0.0 | 0.00 | 0.01 | 0.00 | 92 | 1008.0 |
| 20260901071503 | 58 | 240 | 0.0 | 0.0 | 0.00 | 0.01 | 0.00 | 92 | 1008.0 |
| 20260901070002 | 58 | 266 | 0.0 | 0.0 | 0.00 | 0.01 | 0.00 | 92 | 1007.9 |
| 20260901064601 | 58 | 340 | 0.0 | 0.0 | 0.00 | 0.01 | 0.01 | 92 | 1007.9 |
| 20260901063100 | 59 | 340 | 0.0 | 0.0 | 0.00 | 0.01 | 0.01 | 91 | 1008.0 |
| 20260901061603 | 59 | 340 | 0.0 | 0.0 | 0.00 | 0.01 | 0.01 | 91 | 1008.1 |
| 20260901060059 | 59 | 318 | 0.0 | 0.0 | 0.00 | 0.01 | 0.01 | 91 | 1008.2 |
| 20260901054558 | 59 | 315 | 0.0 | 0.0 | 0.00 | 0.01 | 0.01 | 90 | 1008.3 |
| 20260901053120 | 59 | 315 | 0.0 | 0.0 | 0.00 | 0.01 | 0.01 | 90 | 1008.4 |
| 20260901051557 | 59 | 315 | 0.0 | 0.0 | 0.00 | 0.01 | 0.01 | 89 | 1008.4 |
| 20260901050056 | 59 | 298 | 0.0 | 0.0 | 0.00 | 0.01 | 0.01 | 89 | 1008.4 |
| 20260901044555 | 59 | 279 | 0.0 | 0.0 | 0.00 | 0.01 | 0.01 | 88 | 1008.4 |
| 20260901043118 | 60 | 323 | 0.0 | 0.0 | 0.00 | 0.01 | 0.01 | 88 | 1008.3 |
| 20260901041606 | 60 | 250 | 0.0 | 0.0 | 0.00 | 0.01 | 0.01 | 87 | 1008.2 |
| 20260901034604 | 60 | 222 | 0.0 | 0.0 | 0.00 | 0.01 | 0.01 | 86 | 1008.1 |
| 20260901033104 | 60 | 268 | 0.0 | 0.0 | 0.00 | 0.01 | 0.01 | 85 | 1007.9 |
| 20260901031553 | 60 | 274 | 0.0 | 0.0 | 0.00 | 0.01 | 0.01 | 84 | 1007.8 |
| 20260901030052 | 60 | 333 | 0.0 | 0.0 | 0.00 | 0.01 | 0.01 | 83 | 1007.8 |
| 20260901024555 | 61 | 333 | 0.0 | 0.0 | 0.00 | 0.01 | 0.01 | 82 | 1007.6 |
| 20260901023051 | 61 | 333 | 0.0 | 0.0 | 0.00 | 0.01 | 0.01 | 81 | 1007.6 |
| 20260901021552 | 61 | 355 | 0.0 | 0.0 | 0.00 | 0.01 | 0.01 | 81 | 1007.4 |
| 20260901020050 | 61 | 21 | 0.0 | 4.0 | 0.00 | 0.01 | 0.01 | 81 | 1007.6 |
| 20260901014549 | 61 | 351 | 0.0 | 0.0 | 0.00 | 0.01 | 0.01 | 80 | 1007.6 |
| 20260901013049 | 61 | 17 | 0.0 | 0.0 | 0.00 | 0.01 | 0.01 | 80 | 1007.5 |
| 20260901011555 | 61 | 340 | 0.0 | 0.0 | 0.00 | 0.01 | 0.01 | 80 | 1007.6 |
| 20260901010048 | 62 | 316 | 0.0 | 0.0 | 0.00 | 0.01 | 0.01 | 79 | 1007.6 |
| 20260901004547 | 62 | 282 | 0.0 | 7.0 | 0.00 | 0.01 | 0.01 | 78 | 1007.5 |
| 20260901003055 | 62 | 360 | 0.0 | 4.0 | 0.00 | 0.01 | 0.01 | 78 | 1007.6 |
| 20260901001545 | 63 | 251 | 0.0 | 0.0 | 0.00 | 0.01 | 0.01 | 77 | 1007.5 |